#timestamp,LO_Frequency,Hit,StdDev 
1683507615.5,286046999.9,N
1683507635.3,286047002.2,N
1683507655.2,286046999.7,N
1683507675.9,286047002.2,N
1683507695.7,286047001.9,N
1683507715.6,286047002.6,N
1683507735.4,286046999.8,N
1683507755.2,286047000.9,N
1683507775.1,286047002.8,N
1683507776.0,286047002.8,N
1683507795.8,286046999.7,N
1683507815.7,286046999.9,N
1683507835.5,286046999.9,N
1683507855.3,286047000.3,N
1683507875.2,286047002.7,N
1683507895.0,286047001.9,N
1683507895.9,286047001.9,N
1683507915.7,286047004.0,N
1683507935.6,286047004.0,N
1683507955.4,286047004.3,N
1683507975.3,286047004.3,N
1683507995.1,286047004.3,N
1683507996.0,286047004.3,N
1683508015.8,286047003.7,N
1683508035.7,286047004.2,N
1683508055.5,286047003.7,N
1683508075.3,286047001.5,N
1683508095.2,286047002.7,N
1683508115.0,286047000.7,N
1683508115.9,286047000.7,N
1683508135.8,286047001.2,N
1683508155.6,286047002.7,N
1683508175.4,286046998.2,N
1683508195.3,286047001.2,N
1683508215.1,286046998.4,N
1683508235.8,286046996.5,N
1683508255.7,286046996.9,N
1683508275.5,286046999.0,N
1683508295.4,286046998.2,N
1683508315.2,286047001.0,N
1683508335.0,286046998.1,N
1683508335.9,286046998.1,N
1683508355.8,286046998.5,N
1683508375.6,286046997.5,N
1683508395.4,286046995.9,N
1683508415.3,286046993.6,N
1683508435.1,286046993.4,N
1683508455.9,286046996.0,N
1683508475.7,286046993.5,N
1683508495.5,286046993.8,N
1683508515.4,286046996.4,N
1683508535.2,286046995.8,N
1683508555.0,286046993.6,N
1683508556.0,286046993.6,N
1683508575.8,286046996.3,N
1683508595.6,286046993.4,N
1683508615.5,286046993.6,N
1683508635.3,286046994.2,N
1683508655.1,286046994.0,N
1683508675.9,286046994.6,N
1683508695.7,286046994.8,N
1683508715.6,286046992.9,N
1683508735.4,286046992.9,Y
1683508755.2,286046997.9,P
1683508775.1,286046993.3,P
1683508776.0,286046993.3,P
1683508795.8,286046995.9,N
1683508815.7,286046996.3,N
1683508835.5,286046995.9,N
1683508855.3,286046995.1,Y
1683508875.2,286047000.4,P
1683508895.0,286046999.9,N
1683508895.9,286046999.9,N
1683508915.8,286047000.2,N
1683508935.6,286047002.8,N
1683508955.4,286046999.8,N
1683508975.3,286047000.1,N
1683508995.1,286047000.2,N
1683509015.8,286047000.0,N
1683509035.7,286047000.4,N
1683509055.5,286047001.0,N
1683509075.4,286047000.8,N
1683509095.2,286047000.8,N
1683509115.0,286047000.8,N
1683509115.9,286047000.8,N
1683509135.8,286046998.6,N
1683509155.6,286046998.3,N
1683509175.5,286046998.3,N
1683509195.3,286046998.7,N
1683509215.1,286046998.3,N
1683509235.9,286046998.8,N
1683509255.7,286046999.4,N
1683509275.6,286046999.1,N
1683509295.4,286046999.5,N
1683509315.2,286046999.2,N
1683509335.1,286046999.3,N
1683509336.0,286046999.3,N
1683509355.8,286046998.6,N
1683509375.7,286046998.9,N
1683509395.5,286046999.5,N
1683509415.3,286046999.1,N
1683509435.2,286046996.6,Y
1683509455.0,286046996.7,P
1683509455.9,286046996.7,N
1683509475.8,286046997.1,N
1683509495.6,286046994.9,Y
1683509515.4,286046998.9,P
1683509535.3,286046999.2,N
1683509555.1,286046998.4,N
1683509575.8,286046998.4,N
1683509595.7,286046999.5,N
1683509615.5,286046996.8,Y
1683509635.4,286047001.2,P
1683509655.2,286046998.1,N
1683509675.0,286047000.9,N
1683509675.9,286047000.9,N
1683509695.8,286046999.7,N
1683509715.6,286047000.7,N
1683509735.5,286046999.8,N
1683509755.3,286047000.3,N
1683509775.1,286047000.0,N
1683509795.9,286047000.5,N
1683509815.7,286046998.2,N
1683509835.5,286047001.2,N
1683509855.4,286047001.2,N
1683509875.2,286047000.9,N
1683509895.1,286047001.1,N
1683509896.0,286047001.1,N
1683509915.8,286046999.3,N
1683509935.6,286046998.8,N
1683509955.5,286046999.4,N
1683509975.3,286046998.2,N
1683509995.1,286047001.2,N
1683510015.9,286047001.1,N
1683510035.7,286046998.5,N
1683510055.6,286047000.6,N
1683510075.4,286047001.0,N
1683510095.2,286047001.0,N
1683510115.1,286046998.7,N
1683510116.0,286046998.7,N
1683510135.8,286046998.9,N
1683510155.7,286046998.4,N
1683510175.5,286046998.6,N
1683510195.3,286046997.2,N
1683510215.2,286046999.5,N
1683510235.0,286046999.6,N
1683510235.9,286046999.6,N
1683510255.7,286046997.0,N
1683510275.6,286046996.7,N
1683510295.4,286046999.5,N
1683510315.3,286046996.5,N
1683510335.1,286046999.6,N
1683510336.0,286046999.6,N
1683510355.8,286046999.3,N
1683510375.7,286046999.2,N
1683510395.5,286046996.6,N
1683510415.3,286046998.4,N
1683510435.2,286046998.4,N
1683510455.0,286046997.0,N
1683510455.9,286046997.0,N
1683510475.8,286046996.7,N
1683510495.6,286046997.0,N
1683510515.4,286046997.0,N
1683510535.3,286046996.5,N
1683510555.1,286046999.4,N
1683510575.9,286046999.3,N
1683510595.7,286046999.1,N
1683510615.5,286046996.6,N
1683510635.4,286046997.8,N
1683510655.2,286046997.9,N
1683510675.0,286046997.4,N
1683510675.9,286046997.4,N
1683510695.8,286046995.2,Y
1683510715.6,286046996.6,P
1683510735.5,286046997.0,P
1683510755.3,286046997.0,P
1683510775.1,286046999.5,N
1683510795.9,286046999.2,N
1683510815.7,286046998.9,N
1683510835.5,286046999.4,N
1683510855.4,286046998.1,N
1683510875.2,286046998.3,N
1683510895.1,286046998.6,N
1683510896.0,286046998.6,N
1683510915.8,286046999.2,N
1683510935.6,286046999.3,N
1683510955.5,286046997.1,Y
1683510975.3,286046998.7,P
1683510995.2,286046998.2,P
1683511015.9,286047000.9,P
1683511035.7,286047000.3,N
1683511055.6,286047000.0,N
1683511075.4,286046999.9,N
1683511095.2,286046999.9,N
1683511115.1,286047002.3,N
1683511116.0,286047002.3,N
1683511135.8,286047002.4,N
1683511155.7,286047001.9,N
1683511175.5,286047002.3,N
1683511195.3,286047002.1,N
